[[{"header":{"parameterUnit":"m.s-1","parameterCategory":1,"la1":30.2991,"la2":30.254,"lo1":-89.0895,"lo2":-89.0444,"dy":0.0017,"dx":0.0017,"nx":28,"ny":28,"refTime":"2025-02-08T09:00:00:Z","depth":0,"parameterNumber":2,"parameterNumberName":"U-component_of_WINDS"},"data":[0,0,0,0,0,0,0,0,0,0,0,0,0,0,0,0,0,0,0,0,0,0,0,0,0,0,0,0,0,0,0,0,0,0,0,0,0,0,0,0,0,0,0,0,0,0,0,0,0,0,0,0,0,0,0,0,0,0,1.1089,1.1089,0,1.1074,1.1073,1.1073,1.1074,1.1074,1.1074,1.1075,1.1058,1.1058,1.1057,0,0,0,0,0,0,0,0,0,0,0,0,0,1.1117,1.1117,1.1089,1.1089,1.1089,1.1074,1.1073,1.1073,1.1074,1.1074,1.1074,1.1075,1.1059,1.1058,1.1057,0,0,0,0,0,0,0,0,0,0,0,0,0,1.1104,1.1116,1.1089,1.1087,1.1087,1.1074,1.1073,1.1073,1.1074,1.1074,1.1074,1.1075,1.1059,1.1058,1.1057,1.1045,0,0,1.1054,1.1054,0,0,0,0,0,0,0,0,1.1104,1.1103,1.1088,1.1087,1.1087,1.1076,1.1077,1.1064,1.1074,1.1079,1.1075,1.1075,1.1064,1.1063,1.1059,1.1044,1.1043,1.1054,1.1054,1.1053,1.1053,0,0,0,0,0,0,0,1.1105,1.1103,1.1083,1.1087,1.1087,1.1086,1.1085,1.1075,1.107,1.1078,1.1078,1.1077,1.1064,1.106,1.1059,1.1043,1.1054,1.1053,1.1053,1.1052,1.1014,1.1014,0,0,0,0,0,0,1.1107,1.1104,1.1083,1.1082,1.1097,1.1086,1.1084,1.1079,1.107,1.1069,1.1076,1.1077,1.1061,1.106,1.1058,1.1041,1.1053,1.1052,1.1052,1.1015,1.1014,1.1014,0,0,0,0,0,0,1.1107,1.1105,1.1084,1.1093,1.1091,1.1085,1.1079,1.1079,1.1075,1.1068,1.1067,1.1073,1.1062,1.1059,1.1048,1.1041,1.1052,1.1051,1.1015,1.1015,1.1014,1.1009,0,0,0,0,0,0,1.1108,1.1105,1.1101,1.1093,1.109,1.1074,1.1079,1.1078,1.1073,1.1074,1.1065,1.1064,1.1062,1.1049,1.1047,1.104,1.105,1.1016,1.1015,1.1014,1.1009,1.1008,1.1007,0,0,0,0,0,1.1109,1.1101,1.1101,1.1098,1.1085,1.1074,1.1072,1.107,1.1073,1.1068,1.1063,1.1064,1.1042,1.1048,1.1045,1.1038,1.1016,1.1015,1.1014,1.101,1.1008,1.1007,0,0,0,0,0,0,1.1108,1.11,1.11,1.1088,1.1082,1.1074,1.1068,1.1068,1.106,1.1061,1.1058,1.1056,1.1044,1.104,1.1046,1.1024,1.103,1.1028,1.1027,1.1025,1.1024,1.1025,1.1049,0,0,0,0,0,1.1107,1.1099,1.1092,1.1082,1.1079,1.1074,1.1069,1.1068,1.1061,1.1058,1.1053,1.1046,1.1037,1.1031,1.1023,1.1009,1.1006,1.1002,1.1001,1.1,1.0998,1.0988,1.0986,1.1011,1.1011,1.1011,0,0,1.1103,1.1098,1.1093,1.1082,1.1077,1.1068,1.1072,1.1063,1.1056,1.1057,1.1044,1.104,1.1032,1.1018,1.1012,1.1015,1.0991,1.0999,1.0998,1.0997,1.0987,1.0985,1.0983,1.101,1.101,1.101,0,0,1.1093,1.1088,1.1079,1.1073,1.1065,1.1061,1.1059,1.1051,1.1048,1.1036,1.1035,1.1027,1.1012,1.1005,1.1,1.0985,1.0984,1.0982,1.0974,1.0965,1.0963,1.0961,1.0954,1.0951,1.0981,1.0981,1.0981,0,1.109,1.1077,1.1074,1.1065,1.1059,1.1058,1.1048,1.1043,1.1032,1.1028,1.1031,1.1011,1.1005,1.0989,1.0985,1.0982,1.0977,1.0983,1.0963,1.0962,1.096,1.0953,1.095,1.098,1.098,1.098,1.098,0,1.1073,1.1063,1.1057,1.1046,1.1039,1.103,1.1024,1.1018,1.1017,1.1012,1.0999,1.0992,1.0981,1.0977,1.0976,1.096,1.0962,1.0964,1.0969,1.0957,1.095,1.0948,1.098,1.098,1.098,1.098,0,0,1.1062,1.1048,1.1046,1.1039,1.1029,1.1022,1.1011,1.1,1.0994,1.0986,1.0976,1.0963,1.0964,1.0958,1.0956,1.0948,1.0933,1.0951,1.095,1.0946,1.0912,1.091,1.0907,1.0933,1.0933,1.0932,1.0912,0,1.1049,1.103,1.1026,1.101,1.1,1.0999,1.0989,1.0981,1.0976,1.0967,1.0962,1.0951,1.0955,1.0951,1.0943,1.0937,1.0926,1.0938,1.0922,1.0922,1.0923,1.0903,1.0901,1.0883,1.091,1.091,1.0909,0,1.1032,1.1023,1.1005,1.0994,1.0989,1.0981,1.0969,1.0961,1.0951,1.0948,1.094,1.0938,1.0926,1.0932,1.0913,1.0921,1.0915,1.091,1.091,1.0907,1.0914,1.0899,1.0877,1.0873,1.0905,1.0906,1.0906,0,1.1024,1.1007,1.0993,1.0989,1.0976,1.0969,1.0964,1.0954,1.0947,1.0937,1.0932,1.092,1.0914,1.0904,1.0899,1.0904,1.088,1.0886,1.0876,1.0876,1.087,1.087,1.0845,1.0868,1.0868,1.0868,1.0868,0,1.1009,1.0998,1.0989,1.0981,1.0967,1.0963,1.0949,1.0944,1.0935,1.0924,1.0922,1.0912,1.0906,1.0895,1.0891,1.0875,1.0872,1.0868,1.0867,1.0868,1.0868,1.0862,1.0863,1.0867,1.0868,1.0868,1.0868,0,1.0998,1.0992,1.0977,1.0965,1.0962,1.0952,1.0942,1.0933,1.0928,1.0914,1.0911,1.0902,1.0888,1.0882,1.0866,1.0862,1.0843,1.0844,1.0846,1.0846,1.0835,1.0835,1.0804,1.0799,1.0827,1.0826,1.0826,0,1.0989,1.098,1.0967,1.0959,1.0953,1.0942,1.0934,1.0928,1.092,1.0907,1.0899,1.0885,1.0873,1.0851,1.0843,1.083,1.0829,1.0819,1.0827,1.0827,1.0826,1.0826,1.0824,1.0817,1.0817,1.0817,1.0816,0,1.0972,1.0969,1.0958,1.0945,1.0936,1.0926,1.0915,1.0909,1.0902,1.0892,1.0878,1.0869,1.0851,1.0836,1.0822,1.0815,1.0813,1.0814,1.081,1.081,1.0811,1.0808,1.0841,1.0815,1.0815,1.0815,1.0815,1.0815,1.0961,1.0952,1.094,1.0927,1.0919,1.0909,1.0899,1.0891,1.0879,1.0864,1.0861,1.0845,1.0833,1.0814,1.0806,1.0793,1.0795,1.079,1.0789,1.0787,1.0786,1.0814,1.079,1.079,1.079,1.079,1.079,0,1.0943,1.0935,1.0923,1.0908,1.0897,1.0897,1.0885,1.0875,1.0861,1.085,1.0838,1.082,1.0806,1.0795,1.078,1.0771,1.077,1.0767,1.0767,1.0765,1.0786,1.0789,1.0768,1.0768,1.0768,1.0768,1.0768,1.0768,1.0932,1.0916,1.0911,1.089,1.0882,1.0866,1.0859,1.0848,1.0839,1.0819,1.0807,1.08,1.0788,1.0772,1.0757,1.0755,1.0748,1.0745,1.0742,1.0761,1.0764,1.0766,1.0769,1.0744,1.0744,1.0722,1.0722,1.0721]},{"header":{"parameterUnit":"m.s-1","parameterCategory":1,"la1":30.2991,"la2":30.254,"lo1":-89.0895,"lo2":-89.0444,"dy":0.0017,"dx":0.0017,"nx":28,"ny":28,"refTime":"2025-02-08T09:00:00:Z","depth":0,"parameterNumber":3,"parameterNumberName":"V-component_of_WINDS"},"data":[0,0,0,0,0,0,0,0,0,0,0,0,0,0,0,0,0,0,0,0,0,0,0,0,0,0,0,0,0,0,0,0,0,0,0,0,0,0,0,0,0,0,0,0,0,0,0,0,0,0,0,0,0,0,0,0,0,0,1.7314,1.7315,0,1.7357,1.7358,1.7358,1.738,1.738,1.738,1.738,1.7423,1.7425,1.7426,0,0,0,0,0,0,0,0,0,0,0,0,0,1.725,1.7251,1.7314,1.7315,1.7315,1.7357,1.7358,1.7358,1.738,1.738,1.738,1.738,1.7423,1.7424,1.7426,0,0,0,0,0,0,0,0,0,0,0,0,0,1.7284,1.7251,1.7314,1.7331,1.7333,1.7357,1.7358,1.7359,1.738,1.738,1.738,1.738,1.7423,1.7424,1.7426,1.7437,0,0,1.7431,1.7432,0,0,0,0,0,0,0,0,1.7282,1.7286,1.7328,1.733,1.7332,1.7363,1.7351,1.7385,1.738,1.7362,1.738,1.738,1.7403,1.7407,1.7415,1.7439,1.7441,1.7431,1.7433,1.7433,1.7434,0,0,0,0,0,0,0,1.7279,1.7284,1.7331,1.7328,1.7331,1.7336,1.7341,1.7358,1.7382,1.7363,1.7365,1.737,1.7404,1.7413,1.7416,1.7441,1.7431,1.7433,1.7434,1.7435,1.7477,1.7477,0,0,0,0,0,0,1.7274,1.7282,1.733,1.7332,1.7306,1.7337,1.7343,1.7353,1.7382,1.7386,1.737,1.7371,1.741,1.7414,1.7418,1.7433,1.7433,1.7435,1.7436,1.7477,1.7477,1.7477,0,0,0,0,0,0,1.7273,1.7278,1.7328,1.7308,1.7315,1.7338,1.735,1.7354,1.7363,1.7387,1.7391,1.7374,1.741,1.7415,1.7432,1.7435,1.7436,1.7437,1.7477,1.7477,1.7477,1.7463,0,0,0,0,0,0,1.7271,1.7278,1.7282,1.7308,1.7316,1.7342,1.735,1.7355,1.7366,1.7367,1.7392,1.7396,1.7411,1.7429,1.7434,1.7437,1.7439,1.7477,1.7477,1.7477,1.7463,1.7462,1.7461,0,0,0,0,0,1.7269,1.7276,1.7282,1.7288,1.7321,1.7342,1.7346,1.7363,1.7366,1.737,1.7386,1.7395,1.7433,1.7431,1.7436,1.744,1.7477,1.7477,1.7477,1.7463,1.7462,1.7462,0,0,0,0,0,0,1.7249,1.7279,1.7287,1.7302,1.7319,1.7345,1.7352,1.7361,1.7378,1.7378,1.7398,1.7404,1.7419,1.7431,1.7428,1.7452,1.7456,1.7457,1.7444,1.7443,1.7442,1.7439,1.744,0,0,0,0,0,1.7247,1.7261,1.7286,1.7298,1.7306,1.7327,1.7337,1.7348,1.7367,1.7374,1.7391,1.7408,1.7424,1.7434,1.745,1.7465,1.7471,1.747,1.7469,1.7468,1.7469,1.7479,1.7479,1.7478,1.7478,1.7478,0,0,1.7242,1.726,1.7268,1.7294,1.7309,1.7323,1.7333,1.7348,1.7359,1.7376,1.7393,1.7406,1.7427,1.7443,1.7451,1.7454,1.7471,1.7469,1.7468,1.7469,1.7479,1.7479,1.7479,1.7478,1.7478,1.7478,0,0,1.724,1.7255,1.7267,1.7281,1.7303,1.7318,1.732,1.7345,1.7355,1.7372,1.7386,1.7399,1.7426,1.7441,1.7452,1.7456,1.7466,1.7461,1.7457,1.7467,1.7467,1.7467,1.7469,1.747,1.7462,1.7462,1.7462,0,1.7231,1.7254,1.7271,1.7286,1.7297,1.7314,1.7326,1.7339,1.7365,1.7373,1.7376,1.7411,1.7425,1.7446,1.7447,1.7455,1.7459,1.7458,1.7465,1.7466,1.7466,1.7469,1.7469,1.7461,1.7461,1.7461,1.7461,0,1.7242,1.7257,1.7264,1.7289,1.7302,1.7315,1.7335,1.7345,1.7356,1.737,1.7388,1.7407,1.7427,1.7433,1.7443,1.7455,1.7456,1.7461,1.7466,1.7465,1.7468,1.7469,1.746,1.746,1.7461,1.7461,0,0,1.7229,1.7265,1.7267,1.7279,1.7305,1.7317,1.7331,1.7352,1.7361,1.7378,1.7391,1.7413,1.7419,1.7432,1.7444,1.7452,1.7455,1.7457,1.7457,1.7456,1.7471,1.7466,1.7467,1.7462,1.7462,1.7462,1.7469,0,1.7232,1.7258,1.7275,1.7294,1.7309,1.7326,1.7338,1.7355,1.7369,1.7383,1.7398,1.7415,1.7421,1.7428,1.7437,1.7453,1.7459,1.7453,1.7474,1.7475,1.7469,1.7469,1.7464,1.747,1.747,1.747,1.7471,0,1.7238,1.7256,1.7277,1.7303,1.7309,1.732,1.7341,1.7354,1.7374,1.7384,1.7398,1.741,1.7426,1.7429,1.7452,1.7447,1.7457,1.7466,1.7467,1.747,1.7473,1.7472,1.7472,1.7473,1.7472,1.7472,1.7472,0,1.7228,1.7257,1.7274,1.7283,1.7313,1.732,1.7333,1.7353,1.7365,1.7383,1.7391,1.741,1.7421,1.7435,1.7453,1.7453,1.7474,1.7478,1.7482,1.7482,1.7486,1.7486,1.7488,1.7491,1.7491,1.7491,1.7491,0,1.7229,1.7242,1.727,1.728,1.7295,1.7314,1.7328,1.7342,1.736,1.7373,1.7388,1.7401,1.7423,1.7438,1.7451,1.7469,1.7473,1.7481,1.7485,1.748,1.7479,1.7487,1.7488,1.7492,1.7492,1.7492,1.7492,0,1.722,1.7239,1.7259,1.7285,1.7293,1.7302,1.7325,1.7336,1.735,1.7367,1.7372,1.7395,1.7414,1.7433,1.7458,1.7467,1.7484,1.7489,1.7477,1.7479,1.7483,1.7483,1.7491,1.7493,1.7494,1.7494,1.7494,0,1.722,1.7231,1.7259,1.7269,1.7281,1.7298,1.731,1.7329,1.7341,1.7366,1.7374,1.7393,1.741,1.744,1.7458,1.7478,1.7483,1.7485,1.7486,1.7482,1.7484,1.7484,1.7485,1.7484,1.7484,1.7484,1.7484,0,1.7219,1.7228,1.7245,1.7265,1.7279,1.7296,1.7314,1.7321,1.7344,1.7357,1.7377,1.739,1.7416,1.7436,1.7458,1.7471,1.7481,1.7484,1.7486,1.7481,1.7475,1.7479,1.7476,1.7483,1.7483,1.7483,1.7483,1.7484,1.7215,1.7225,1.7247,1.7265,1.7281,1.7297,1.7309,1.7325,1.7342,1.7365,1.7375,1.7395,1.7415,1.7446,1.7459,1.7475,1.7478,1.7481,1.7482,1.7482,1.7482,1.7472,1.7479,1.7479,1.7479,1.7479,1.7479,0,1.7215,1.723,1.7246,1.7271,1.7286,1.7295,1.7315,1.7326,1.7344,1.7362,1.7379,1.7402,1.7421,1.7442,1.7463,1.7472,1.7477,1.7476,1.7476,1.7479,1.7477,1.7474,1.7472,1.7472,1.7472,1.7472,1.7472,1.7472,1.7216,1.7234,1.7246,1.7272,1.7287,1.7307,1.7317,1.7333,1.7348,1.7372,1.7389,1.7402,1.7422,1.7444,1.7463,1.7468,1.7476,1.7474,1.7481,1.7479,1.7479,1.748,1.7477,1.7475,1.7475,1.7481,1.7482,1.7482]}]]